RYR91AC LICT-LIBD

Flight info

Callsign RYR91AC
Flight time 0h 52m
Altitude 40000
Route PAL DCT ROSAS DCT AMANO DCT NAXES DCT VARAL DCT POLIT DCT KUTID DCT VEGAN DCT BUMOK
Aircraft B738/M-SDE2E3FGHIRWXY/LB1

Departure

Time 2026-04-23 14:49
Airport Vincenzo Florio Airport Trapani-Birgi (LICT)

Arrival

Time 2026-04-23 15:41
Airport Bari Karol Wojtyła International Airport (LIBD)
Time Latitude Longitude Altitude Speed Heading
2026-04-23 14:34 37.90321 12.49546 30 ft 0 kts 261°
2026-04-23 14:45 37.90323 12.49533 30 ft 3 kts 299°
2026-04-23 14:45 37.90337 12.49542 30 ft 3 kts 81°
2026-04-23 14:45 37.90337 12.49571 30 ft 4 kts 77°
2026-04-23 14:46 37.90360 12.49595 30 ft 5 kts 36°
2026-04-23 14:46 37.90359 12.49617 29 ft 4 kts 129°
2026-04-23 14:46 37.90333 12.49657 30 ft 7 kts 129°
2026-04-23 14:46 37.90306 12.49718 30 ft 9 kts 92°
2026-04-23 14:47 37.90352 12.49738 31 ft 8 kts 326°
2026-04-23 14:47 37.90388 12.49682 33 ft 8 kts 307°
2026-04-23 14:47 37.90438 12.49673 34 ft 8 kts 31°
2026-04-23 14:47 37.90487 12.49719 35 ft 10 kts 37°
2026-04-23 14:48 37.90551 12.49745 33 ft 11 kts 329°
2026-04-23 14:48 37.90665 12.49568 34 ft 58 kts 308°
2026-04-23 14:48 37.91065 12.48918 26 ft 126 kts 309°
2026-04-23 14:48 37.91699 12.47874 194 ft 162 kts 310°
2026-04-23 14:49 37.92418 12.46820 963 ft 158 kts 324°
2026-04-23 14:49 37.93395 12.46323 1698 ft 152 kts 356°
2026-04-23 14:49 37.94483 12.46279 2375 ft 160 kts 358°
2026-04-23 14:49 37.95701 12.46120 2725 ft 190 kts 354°
2026-04-23 14:50 37.97018 12.45841 3367 ft 197 kts 346°
2026-04-23 14:50 37.98308 12.45172 4019 ft 202 kts 336°
2026-04-23 14:50 37.99600 12.44353 4524 ft 220 kts 335°
2026-04-23 14:50 38.01059 12.43425 4786 ft 248 kts 335°
2026-04-23 14:51 38.02646 12.42419 5418 ft 259 kts 335°
2026-04-23 14:51 38.04274 12.41391 6242 ft 263 kts 335°
2026-04-23 14:51 38.05925 12.40353 7122 ft 266 kts 337°
2026-04-23 14:51 38.07718 12.39859 7977 ft 267 kts
2026-04-23 14:52 38.09507 12.40489 8857 ft 271 kts 26°
2026-04-23 14:52 38.11081 12.41849 9694 ft 278 kts 36°
2026-04-23 14:52 38.12610 12.43398 10451 ft 287 kts 36°
2026-04-23 14:52 38.14231 12.45082 10729 ft 314 kts 36°
2026-04-23 14:53 38.15954 12.46885 11339 ft 326 kts 36°
2026-04-23 14:53 38.17719 12.48732 12134 ft 332 kts 36°
2026-04-23 14:53 38.19516 12.50607 12992 ft 336 kts 35°
2026-04-23 14:53 38.21338 12.52500 13866 ft 340 kts 34°
2026-04-23 14:54 38.23182 12.54411 14733 ft 344 kts 34°
2026-04-23 14:54 38.25057 12.56349 15570 ft 350 kts 33°
2026-04-23 14:54 38.26952 12.58308 16435 ft 353 kts 33°
2026-04-23 14:54 38.28875 12.60293 17261 ft 358 kts 32°
2026-04-23 14:55 38.30820 12.62300 18053 ft 362 kts 32°
2026-04-23 14:55 38.32793 12.64337 18805 ft 367 kts 32°
2026-04-23 14:55 38.34787 12.66396 19555 ft 372 kts 32°
2026-04-23 14:55 38.36811 12.68488 20275 ft 376 kts 32°
2026-04-23 14:56 38.38857 12.70606 20968 ft 381 kts 32°
2026-04-23 14:56 38.40926 12.72747 21645 ft 386 kts 32°
2026-04-23 14:56 38.43024 12.74922 22312 ft 390 kts 32°
2026-04-23 14:56 38.45143 12.77119 22949 ft 395 kts 32°
2026-04-23 14:57 38.47281 12.79339 23554 ft 399 kts 32°
2026-04-23 14:57 38.49446 12.81588 24163 ft 403 kts 32°
2026-04-23 14:57 38.51635 12.83864 24741 ft 407 kts 32°
2026-04-23 14:57 38.53838 12.86159 25326 ft 410 kts 32°
2026-04-23 14:58 38.56057 12.88470 25926 ft 413 kts 32°
2026-04-23 14:58 38.58285 12.90795 26487 ft 416 kts 32°
2026-04-23 14:58 38.60509 12.93115 26996 ft 419 kts 31°
2026-04-23 14:58 38.62772 12.95476 27520 ft 422 kts 31°
2026-04-23 14:59 38.65052 12.97858 28011 ft 425 kts 31°
2026-04-23 14:59 38.67344 13.00254 28482 ft 427 kts 31°
2026-04-23 14:59 38.69656 13.02676 28973 ft 430 kts 31°
2026-04-23 14:59 38.71976 13.05106 29407 ft 433 kts 31°
2026-04-23 15:00 38.74311 13.07555 29843 ft 435 kts 31°
2026-04-23 15:00 38.76656 13.10016 30267 ft 437 kts 31°
2026-04-23 15:00 38.79016 13.12495 30652 ft 440 kts 31°
2026-04-23 15:00 38.80587 13.14146 30890 ft 442 kts 31°
2026-04-23 15:01 38.82975 13.16657 31262 ft 445 kts 31°
2026-04-23 15:01 38.85367 13.19175 31644 ft 446 kts 31°
2026-04-23 15:01 38.87773 13.21711 31983 ft 449 kts 31°
2026-04-23 15:01 38.90191 13.24262 32346 ft 450 kts 31°
2026-04-23 15:02 38.92610 13.26818 32797 ft 450 kts 31°
2026-04-23 15:02 38.95018 13.29367 33292 ft 447 kts 31°
2026-04-23 15:02 38.97407 13.31897 33782 ft 445 kts 31°
2026-04-23 15:02 38.99794 13.34425 34196 ft 444 kts 31°
2026-04-23 15:03 39.02180 13.36951 34557 ft 445 kts 31°
2026-04-23 15:03 39.04574 13.39487 34913 ft 446 kts 32°
2026-04-23 15:03 39.06964 13.42024 35333 ft 444 kts 32°
2026-04-23 15:03 39.09344 13.44554 35752 ft 443 kts 32°
2026-04-23 15:04 39.11717 13.47079 36113 ft 443 kts 32°
2026-04-23 15:04 39.14094 13.49607 36420 ft 444 kts 33°
2026-04-23 15:04 39.16477 13.52145 36718 ft 444 kts 33°
2026-04-23 15:04 39.18850 13.54676 37148 ft 441 kts 33°
2026-04-23 15:05 39.21205 13.57192 37567 ft 438 kts 33°
2026-04-23 15:05 39.23546 13.59694 37924 ft 437 kts 33°
2026-04-23 15:05 39.25884 13.62193 38268 ft 436 kts 34°
2026-04-23 15:05 39.28207 13.64679 38674 ft 432 kts 34°
2026-04-23 15:06 39.30508 13.67143 39120 ft 427 kts 35°
2026-04-23 15:06 39.32764 13.69560 39355 ft 428 kts 35°
2026-04-23 15:06 39.35067 13.72027 39494 ft 431 kts 35°
2026-04-23 15:06 39.37375 13.74504 39692 ft 432 kts 35°
2026-04-23 15:07 39.39684 13.76987 39967 ft 431 kts 35°
2026-04-23 15:07 39.41992 13.79484 40092 ft 434 kts 37°
2026-04-23 15:07 39.46252 13.85133 40090 ft 441 kts 44°
2026-04-23 15:08 39.50318 13.91011 40084 ft 435 kts 44°
2026-04-23 15:09 39.56370 13.99675 40091 ft 430 kts 44°
2026-04-23 15:09 39.60404 14.05392 40091 ft 429 kts 44°
2026-04-23 15:10 39.64427 14.11095 40100 ft 428 kts 44°
2026-04-23 15:10 39.68451 14.16810 40105 ft 429 kts 44°
2026-04-23 15:11 39.72483 14.22550 40106 ft 431 kts 44°
2026-04-23 15:11 39.76533 14.28327 39982 ft 436 kts 44°
2026-04-23 15:11 39.78587 14.31260 39516 ft 439 kts 44°
2026-04-23 15:12 39.80639 14.34195 38949 ft 438 kts 44°
2026-04-23 15:12 39.82683 14.37127 38433 ft 437 kts 44°
2026-04-23 15:12 39.84720 14.40046 37854 ft 436 kts 44°
2026-04-23 15:12 39.86755 14.42963 37314 ft 434 kts 44°
2026-04-23 15:13 39.88774 14.45861 36905 ft 429 kts 44°
2026-04-23 15:13 39.90769 14.48733 36475 ft 426 kts 44°
2026-04-23 15:13 39.92742 14.51578 36060 ft 422 kts 44°
2026-04-23 15:13 39.94698 14.54405 35609 ft 419 kts 44°
2026-04-23 15:14 39.96640 14.57213 35184 ft 416 kts 44°
2026-04-23 15:14 39.98572 14.60005 34754 ft 413 kts 44°
2026-04-23 15:14 40.00488 14.62777 34325 ft 411 kts 44°
2026-04-23 15:14 40.02399 14.65542 33884 ft 408 kts 44°
2026-04-23 15:15 40.04300 14.68282 33450 ft 405 kts 45°
2026-04-23 15:15 40.06184 14.70995 33040 ft 402 kts 45°
2026-04-23 15:15 40.08046 14.73679 32635 ft 398 kts 45°
2026-04-23 15:15 40.09894 14.76347 32230 ft 394 kts 46°
2026-04-23 15:16 40.11722 14.78989 31822 ft 390 kts 46°
2026-04-23 15:16 40.13530 14.81606 31424 ft 386 kts 46°
2026-04-23 15:16 40.15326 14.84193 31020 ft 382 kts 46°
2026-04-23 15:16 40.17131 14.86715 30630 ft 378 kts 45°
2026-04-23 15:17 40.18930 14.89190 30236 ft 373 kts 45°
2026-04-23 15:17 40.20711 14.91634 29856 ft 369 kts 45°
2026-04-23 15:17 40.22471 14.94054 29458 ft 365 kts 45°
2026-04-23 15:17 40.24205 14.96446 29061 ft 361 kts 46°
2026-04-23 15:18 40.25925 14.98825 28650 ft 357 kts 46°
2026-04-23 15:18 40.27622 15.01176 28247 ft 354 kts 46°
2026-04-23 15:18 40.29303 15.03509 27851 ft 351 kts 46°
2026-04-23 15:18 40.30971 15.05827 27444 ft 348 kts 46°
2026-04-23 15:19 40.32623 15.08124 27053 ft 345 kts 46°
2026-04-23 15:19 40.34265 15.10409 26656 ft 342 kts 46°
2026-04-23 15:19 40.35889 15.12671 26267 ft 340 kts 46°
2026-04-23 15:19 40.37500 15.14916 25871 ft 337 kts 46°
2026-04-23 15:20 40.39101 15.17149 25488 ft 334 kts 46°
2026-04-23 15:20 40.40687 15.19363 25108 ft 332 kts 46°
2026-04-23 15:20 40.42261 15.21560 24720 ft 330 kts 46°
2026-04-23 15:20 40.43832 15.23748 24337 ft 328 kts 46°
2026-04-23 15:21 40.45390 15.25916 23955 ft 326 kts 46°
2026-04-23 15:21 40.46942 15.28076 23580 ft 324 kts 46°
2026-04-23 15:21 40.48481 15.30221 23197 ft 321 kts 46°
2026-04-23 15:21 40.50004 15.32347 22823 ft 319 kts 46°
2026-04-23 15:22 40.51520 15.34465 22459 ft 317 kts 46°
2026-04-23 15:22 40.53027 15.36571 22080 ft 315 kts 46°
2026-04-23 15:22 40.54526 15.38668 21696 ft 314 kts 46°
2026-04-23 15:22 40.56019 15.40757 21337 ft 313 kts 46°
2026-04-23 15:23 40.57504 15.42836 20963 ft 311 kts 46°
2026-04-23 15:23 40.58982 15.44908 20595 ft 309 kts 46°
2026-04-23 15:23 40.60445 15.46977 20250 ft 308 kts 48°
2026-04-23 15:23 40.61766 15.49192 19878 ft 307 kts 52°
2026-04-23 15:24 40.63002 15.51482 19520 ft 306 kts 53°
2026-04-23 15:24 40.64215 15.53762 19164 ft 304 kts 53°
2026-04-23 15:24 40.65432 15.56035 18806 ft 303 kts 53°
2026-04-23 15:24 40.66650 15.58289 18448 ft 302 kts 53°
2026-04-23 15:25 40.67873 15.60534 18087 ft 301 kts 52°
2026-04-23 15:25 40.69092 15.62767 17731 ft 300 kts 52°
2026-04-23 15:25 40.70310 15.64999 17374 ft 299 kts 52°
2026-04-23 15:25 40.71494 15.67243 16998 ft 299 kts 58°
2026-04-23 15:26 40.72405 15.69750 16448 ft 306 kts 65°
2026-04-23 15:26 40.73169 15.72361 16055 ft 306 kts 67°
2026-04-23 15:26 40.73908 15.74981 15704 ft 303 kts 67°
2026-04-23 15:26 40.74646 15.77571 15359 ft 301 kts 67°
2026-04-23 15:27 40.75391 15.80145 15027 ft 299 kts 66°
2026-04-23 15:27 40.76139 15.82687 14694 ft 297 kts 66°
2026-04-23 15:27 40.76885 15.85215 14378 ft 294 kts 66°
2026-04-23 15:27 40.77630 15.87720 14050 ft 292 kts 66°
2026-04-23 15:28 40.78371 15.90208 13739 ft 291 kts 66°
2026-04-23 15:28 40.79111 15.92685 13414 ft 289 kts 66°
2026-04-23 15:28 40.79847 15.95149 13091 ft 287 kts 66°
2026-04-23 15:28 40.80579 15.97593 12783 ft 286 kts 66°
2026-04-23 15:29 40.81298 16.00004 12627 ft 277 kts 66°
2026-04-23 15:29 40.81976 16.02285 12474 ft 263 kts 66°
2026-04-23 15:29 40.82625 16.04471 12297 ft 251 kts 66°
2026-04-23 15:29 40.83239 16.06592 12068 ft 245 kts 66°
2026-04-23 15:30 40.83845 16.08691 11819 ft 244 kts 66°
2026-04-23 15:30 40.84447 16.10778 11565 ft 243 kts 66°
2026-04-23 15:30 40.85041 16.12842 11453 ft 238 kts 66°
2026-04-23 15:30 40.85627 16.14879 11334 ft 236 kts 66°
2026-04-23 15:31 40.86214 16.16900 11243 ft 236 kts 63°
2026-04-23 15:31 40.87198 16.18568 11126 ft 230 kts 32°
2026-04-23 15:31 40.88699 16.19310 10824 ft 237 kts
2026-04-23 15:31 40.90317 16.19098 10473 ft 236 kts 345°
2026-04-23 15:32 40.91857 16.18372 10108 ft 233 kts 341°
2026-04-23 15:32 40.93348 16.17602 9740 ft 231 kts 340°
2026-04-23 15:32 40.94886 16.17036 9332 ft 227 kts
2026-04-23 15:32 40.96345 16.17687 9030 ft 222 kts 33°
2026-04-23 15:33 40.97448 16.19083 8729 ft 222 kts 53°
2026-04-23 15:33 40.98113 16.20943 8447 ft 225 kts 65°
2026-04-23 15:33 40.98667 16.22881 8151 ft 225 kts 66°
2026-04-23 15:33 40.99219 16.24816 7860 ft 225 kts 65°
2026-04-23 15:34 40.99778 16.26773 7499 ft 233 kts 66°
2026-04-23 15:34 41.00358 16.28797 7155 ft 236 kts 65°
2026-04-23 15:34 41.00939 16.30825 6845 ft 238 kts 65°
2026-04-23 15:34 41.01534 16.32889 6525 ft 240 kts 65°
2026-04-23 15:35 41.02131 16.34961 6206 ft 242 kts 65°
2026-04-23 15:35 41.02734 16.37059 5883 ft 244 kts 66°
2026-04-23 15:35 41.03337 16.39167 5561 ft 244 kts 66°
2026-04-23 15:35 41.03931 16.41250 5231 ft 239 kts 65°
2026-04-23 15:36 41.04510 16.43277 4926 ft 233 kts 65°
2026-04-23 15:36 41.05074 16.45258 4609 ft 227 kts 65°
2026-04-23 15:36 41.05625 16.47200 4315 ft 223 kts 65°
2026-04-23 15:36 41.06159 16.49103 4029 ft 218 kts 65°
2026-04-23 15:37 41.06706 16.50946 3780 ft 211 kts 61°
2026-04-23 15:37 41.07263 16.52700 3544 ft 203 kts 63°
2026-04-23 15:37 41.07602 16.53843 3367 ft 198 kts 63°
2026-04-23 15:37 41.08235 16.56072 3028 ft 188 kts 63°
2026-04-23 15:38 41.08680 16.57669 2765 ft 181 kts 63°
2026-04-23 15:38 41.09107 16.59195 2526 ft 173 kts 63°
2026-04-23 15:38 41.09520 16.60665 2308 ft 167 kts 64°
2026-04-23 15:38 41.09920 16.62090 2101 ft 163 kts 64°
2026-04-23 15:39 41.10311 16.63483 1895 ft 158 kts 65°
2026-04-23 15:39 41.10679 16.64796 1683 ft 147 kts 65°
2026-04-23 15:39 41.11032 16.66050 1489 ft 146 kts 65°
2026-04-23 15:39 41.11386 16.67305 1303 ft 145 kts 65°
2026-04-23 15:40 41.11734 16.68548 1109 ft 143 kts 65°
2026-04-23 15:40 41.12082 16.69783 923 ft 142 kts 65°
2026-04-23 15:40 41.12424 16.70998 732 ft 143 kts 66°
2026-04-23 15:40 41.12774 16.72261 576 ft 146 kts 66°
2026-04-23 15:41 41.13131 16.73514 375 ft 143 kts 66°
2026-04-23 15:41 41.13474 16.74724 186 ft 141 kts 66°
2026-04-23 15:41 41.13786 16.75818 151 ft 101 kts 70°
2026-04-23 15:41 41.13958 16.76421 148 ft 45 kts 69°
2026-04-23 15:42 41.14000 16.76625 148 ft 13 kts 102°
2026-04-23 15:42 41.13977 16.76700 150 ft 8 kts 114°
2026-04-23 15:42 41.13956 16.76764 154 ft 7 kts 113°
2026-04-23 15:42 41.13932 16.76824 156 ft 7 kts 137°
2026-04-23 15:43 41.13885 16.76816 157 ft 7 kts 215°
2026-04-23 15:43 41.13856 16.76763 157 ft 7 kts 214°
2026-04-23 15:43 41.13806 16.76775 157 ft 8 kts 157°
2026-04-23 15:43 41.13772 16.76828 157 ft 8 kts 109°
2026-04-23 15:44 41.13771 16.76890 158 ft 7 kts 72°
2026-04-23 15:44 41.13780 16.76923 158 ft 1 kts 72°
2026-04-23 15:44 41.13784 16.76939 158 ft 3 kts 70°
2026-04-23 15:44 41.13784 16.76963 158 ft 2 kts 130°
2026-04-23 15:45 41.13764 16.76971 158 ft 3 kts 162°
2026-04-23 15:45 41.13747 16.76977 158 ft 1 kts 184°
2026-04-23 15:45 41.13744 16.76975 158 ft 0 kts 197°